Tracking 30692 objects as of 16-Jun-2025
HD Live streaming from Space Station
objects crossing your sky now

SL-14 DEB

Track SL-14 DEB now!
10-day predictions


NORAD ID: 45316
Int'l Code: 1991-056BE
Perigee: 1,068.4 km
Apogee: 1,223.2 km
Inclination: 82.6 °
Period: 108.1 minutes
Semi major axis: 7516 km
RCS: Unknown
Launch date: August 15, 1991
Source: Commonwealth of Independent States (former USSR) (CIS)
Launch site: PLESETSK MISSILE AND SPACE COMPLEX (PKMTR)

Note: This is SATELLITE DEBRIS
Your satellite tracking list
Your tracking list is empty




NASA's NSSDC Master Catalog

Two Line Element Set (TLE):
1 45316U 91056BE  25167.08122217  .00001337  00000-0  26661-2 0  9991
2 45316  82.5973  16.6009 0102972 198.6300 161.1051 13.32158148258281
Source of the keplerian elements: AFSPC